Location: Aranbee
(34.0885°N, 118.2342°W)
Time: 22:14:36
(UTC+00:00)

Tiros 1 - Pass Details

Date: 02 December 2020
Orbit: 630 x 663 km, 48.4° (Epoch: 19 January)

Event Time Altitude Azimuth Distance (km) Brightness Sun altitude
Rises 05:18:20 0° 299° (WNW) 2,970 - -56.2°
Reaches altitude 10° 05:20:53 10° 289° (WNW) 2,051 - -56.7°
Maximum altitude 05:25:03 32° 227° (SW) 1,113 - -57.6°
Drops below altitude 10° 05:29:11 10° 164° (SSE) 2,022 - -58.4°
Sets 05:31:41 0° 155° (SSE) 2,922 - -58.9°
